Volver al catálogo

NOAA 17 DEB

ActivoPO
NORAD 49487·DEBRIS·🇺🇸 United States

Lanzado Jun 24, 2002 desde Vandenberg Space Force Base

Loading…

Próximos Pases (próximas 24 horas)

TLE

ActualizadoSource: Space-Track

Época: Sep 14, 2026, 09:30 UTC

1 49487U 02032DR  26257.39606477  .00007528  00000-0  11838-2 0  9998
2 49487  98.8086 304.2643 0023832  24.4625 335.7706 14.72675201289911

Sigue NOAA 17 DEB en tiempo real con AllMySat

Download on the App Store